Airfield :
LOGIN :

Register | Disclaimer

   EN    FR    IT 

 










Legend :    VFR   Marginal VFR   IFR   Intensive IFR   Very Intensive IFR
Visi :
Ceiling :
>= 8 km
>= 3000ft
5 to 8 km
1000 to 3000 ft
1500m to 5 km
500 to 1000 ft
800 to 1500m
200 to 500 ft
< 800m
< 200 ft
Symbols :   Thunderstorms  Fog  Heavy snow  Heavy precipitations  Wind > 20 kt
SIGMETs :     Misc.  Thunderstorms  Icing  Turbulence  Mountain Waves  Volcanic Ashes







- Airport Elevation : 408 ft
- IATA code : FKB


EDSB - Karlsruhe Baden Baden

CURRENT METAR :
  • 211750Z 02007KT CAVOK 12/M01 Q1030

EXPIRED METARs :
  • 211720Z 01007KT CAVOK 14/M01 Q1030
  • 211650Z 02009KT CAVOK 15/M01 Q1030
  • 211620Z 03013KT CAVOK 16/M01 Q1030
  • 211550Z 03014KT CAVOK 16/M01 Q1030
  • 211520Z 02012KT 350V050 CAVOK 16/M00 Q1030
  • 211450Z 03016KT CAVOK 16/M01 Q1030

TAF TAF EDSB
Valid from the 21 at 18:00 until the 22 at 18:00 UTC


211700Z 2118/2218 03012KT CAVOK
BECMG 2118/2120 VRB03KT
No reported NOTAMs for that airfield.



MET'MAP, your aeronautical weather chart ! - Copyright ORBIFLY December 2007 - Disclaimer

ORBIFLY MET'MAP TEAM :

Programming & Development : Alexandra Zaïnal
Concept & Development : Baudouin d'Aumeries
Co-Development & Prog : Marc-Olivier Méhu
Technical & hardware support : Manuel Goepfert

Contact : metmap@orbifly.com




SOURCES & CREDITS :

   NOAA